AAL2010 KPHX-KLAS

Flight info

Callsign AAL2010
Flight time 0h 43m
Altitude 26000
Route ZEPER2 RRSTA ELLDA RKSTR4
Aircraft A321/M-SDE3FGHIRWY/LB1

Departure

Time 2026-05-05 17:07
Airport Phoenix Sky Harbor International Airport (KPHX)

Arrival

Time 2026-05-05 17:51
Airport Harry Reid International Airport (KLAS)
Time Latitude Longitude Altitude Speed Heading
2026-05-05 16:51 33.43836 -112.00199 1135 ft 0 kts 182°
2026-05-05 17:00 33.43840 -112.00198 1134 ft 1 kts 182°
2026-05-05 17:00 33.43850 -112.00198 1134 ft 2 kts 178°
2026-05-05 17:00 33.43864 -112.00201 1135 ft 2 kts 159°
2026-05-05 17:01 33.43877 -112.00210 1135 ft 2 kts 144°
2026-05-05 17:01 33.43888 -112.00221 1135 ft 2 kts 130°
2026-05-05 17:01 33.43897 -112.00236 1135 ft 2 kts 115°
2026-05-05 17:01 33.43901 -112.00253 1135 ft 2 kts 99°
2026-05-05 17:02 33.43903 -112.00264 1135 ft 1 kts 90°
2026-05-05 17:02 33.43902 -112.00271 1135 ft 0 kts 89°
2026-05-05 17:04 33.43903 -112.00234 1135 ft 9 kts 90°
2026-05-05 17:05 33.43902 -112.00103 1136 ft 21 kts 90°
2026-05-05 17:05 33.43902 -111.99909 1137 ft 22 kts 90°
2026-05-05 17:05 33.43901 -111.99721 1137 ft 22 kts 90°
2026-05-05 17:05 33.43902 -111.99543 1137 ft 20 kts 89°
2026-05-05 17:06 33.43902 -111.99338 1138 ft 24 kts 91°
2026-05-05 17:06 33.43943 -111.99229 1138 ft 13 kts
2026-05-05 17:06 33.44041 -111.99230 1139 ft 14 kts 354°
2026-05-05 17:06 33.44082 -111.99329 1140 ft 20 kts 269°
2026-05-05 17:07 33.44082 -111.99603 1139 ft 58 kts 270°
2026-05-05 17:07 33.44082 -112.00386 1136 ft 125 kts 270°
2026-05-05 17:07 33.44082 -112.01628 1228 ft 167 kts 268°
2026-05-05 17:07 33.44073 -112.03031 1840 ft 168 kts 269°
2026-05-05 17:08 33.44089 -112.04394 2534 ft 166 kts 270°
2026-05-05 17:08 33.44125 -112.05763 3133 ft 168 kts 269°
2026-05-05 17:08 33.44147 -112.07214 3519 ft 183 kts 269°
2026-05-05 17:08 33.44178 -112.08779 3954 ft 195 kts 270°
2026-05-05 17:09 33.44239 -112.10457 4370 ft 210 kts 270°
2026-05-05 17:09 33.44292 -112.12284 4653 ft 233 kts 270°
2026-05-05 17:09 33.44345 -112.14301 5107 ft 250 kts 269°
2026-05-05 17:09 33.44446 -112.16372 5854 ft 255 kts 279°
2026-05-05 17:10 33.45210 -112.18269 6649 ft 261 kts 310°
2026-05-05 17:10 33.46673 -112.19475 7445 ft 265 kts 340°
2026-05-05 17:10 33.48502 -112.19755 8204 ft 269 kts 359°
2026-05-05 17:10 33.50402 -112.19694 8876 ft 275 kts
2026-05-05 17:11 33.52309 -112.19612 9558 ft 279 kts 359°
2026-05-05 17:11 33.53628 -112.19629 9912 ft 286 kts 356°
2026-05-05 17:11 33.56390 -112.19843 10404 ft 309 kts 354°
2026-05-05 17:11 33.58565 -112.20041 10791 ft 324 kts 354°
2026-05-05 17:12 33.60883 -112.20259 11201 ft 338 kts 351°
2026-05-05 17:12 33.63227 -112.20671 11831 ft 342 kts 346°
2026-05-05 17:12 33.65522 -112.21311 12504 ft 344 kts 342°
2026-05-05 17:12 33.67861 -112.22055 13134 ft 346 kts 341°
2026-05-05 17:13 33.70185 -112.22819 13712 ft 351 kts 341°
2026-05-05 17:13 33.72546 -112.23590 14295 ft 354 kts 341°
2026-05-05 17:13 33.74912 -112.24362 14871 ft 357 kts 341°
2026-05-05 17:13 33.77335 -112.25148 15464 ft 361 kts 341°
2026-05-05 17:14 33.79772 -112.25940 16096 ft 363 kts 340°
2026-05-05 17:14 33.82202 -112.26725 16658 ft 366 kts 340°
2026-05-05 17:14 33.84703 -112.27541 17015 ft 374 kts 340°
2026-05-05 17:14 33.87217 -112.28360 17446 ft 380 kts 340°
2026-05-05 17:15 33.89803 -112.29195 18016 ft 384 kts 340°
2026-05-05 17:15 33.92354 -112.30022 18560 ft 386 kts 340°
2026-05-05 17:15 33.94955 -112.30863 19110 ft 390 kts 340°
2026-05-05 17:15 33.97610 -112.31720 19667 ft 392 kts 340°
2026-05-05 17:16 34.00230 -112.32591 20189 ft 394 kts 337°
2026-05-05 17:16 34.02766 -112.33845 20614 ft 391 kts 326°
2026-05-05 17:16 34.05035 -112.35603 21097 ft 386 kts 316°
2026-05-05 17:16 34.07098 -112.37611 21643 ft 385 kts 314°
2026-05-05 17:17 34.09157 -112.39696 22287 ft 383 kts 313°
2026-05-05 17:17 34.11169 -112.41739 22948 ft 381 kts 313°
2026-05-05 17:17 34.13181 -112.43758 23598 ft 379 kts 312°
2026-05-05 17:17 34.15168 -112.45755 24130 ft 377 kts 312°
2026-05-05 17:18 34.17193 -112.47792 24599 ft 377 kts 311°
2026-05-05 17:18 34.19187 -112.49809 24997 ft 380 kts 311°
2026-05-05 17:18 34.21220 -112.51863 25313 ft 382 kts 310°
2026-05-05 17:18 34.23261 -112.53922 25740 ft 383 kts 310°
2026-05-05 17:19 34.25326 -112.56013 25962 ft 388 kts 310°
2026-05-05 17:19 34.27399 -112.58124 25963 ft 400 kts 310°
2026-05-05 17:19 34.28835 -112.59589 25964 ft 408 kts 310°
2026-05-05 17:19 34.31776 -112.62586 26011 ft 423 kts 311°
2026-05-05 17:20 34.34080 -112.64934 25990 ft 435 kts 311°
2026-05-05 17:20 34.36450 -112.67348 25987 ft 447 kts 311°
2026-05-05 17:20 34.38862 -112.69811 25992 ft 455 kts 311°
2026-05-05 17:20 34.41267 -112.72259 25990 ft 458 kts 311°
2026-05-05 17:21 34.43679 -112.74700 25996 ft 457 kts 312°
2026-05-05 17:21 34.46145 -112.77207 26034 ft 459 kts 313°
2026-05-05 17:21 34.48588 -112.79680 25979 ft 460 kts 313°
2026-05-05 17:22 34.53479 -112.84657 26015 ft 459 kts 313°
2026-05-05 17:22 34.55941 -112.87167 25993 ft 460 kts 313°
2026-05-05 17:22 34.58363 -112.89635 25994 ft 460 kts 313°
2026-05-05 17:22 34.60826 -112.92143 25959 ft 461 kts 313°
2026-05-05 17:23 34.63253 -112.94621 26003 ft 460 kts 313°
2026-05-05 17:23 34.65703 -112.97138 25985 ft 460 kts 313°
2026-05-05 17:23 34.68145 -112.99643 25999 ft 461 kts 314°
2026-05-05 17:23 34.70613 -113.02175 25972 ft 461 kts 314°
2026-05-05 17:24 34.73077 -113.04695 25981 ft 467 kts 313°
2026-05-05 17:24 34.75560 -113.07257 25979 ft 472 kts 313°
2026-05-05 17:24 34.77996 -113.09937 25984 ft 470 kts 311°
2026-05-05 17:24 34.80293 -113.12748 25983 ft 469 kts 308°
2026-05-05 17:25 34.82450 -113.15691 26001 ft 467 kts 306°
2026-05-05 17:25 34.83168 -113.16691 25998 ft 467 kts 306°
2026-05-05 17:25 34.86813 -113.21504 25984 ft 468 kts 308°
2026-05-05 17:25 34.89075 -113.24423 25971 ft 468 kts 309°
2026-05-05 17:26 34.91312 -113.27286 25978 ft 468 kts 308°
2026-05-05 17:26 34.93559 -113.30167 26024 ft 469 kts 309°
2026-05-05 17:26 34.95799 -113.33031 25978 ft 469 kts 309°
2026-05-05 17:26 34.98087 -113.35877 26006 ft 470 kts 312°
2026-05-05 17:27 35.00472 -113.38570 25963 ft 472 kts 314°
2026-05-05 17:27 35.02994 -113.41169 25995 ft 473 kts 316°
2026-05-05 17:27 35.05526 -113.43721 25987 ft 473 kts 317°
2026-05-05 17:27 35.08071 -113.46267 26003 ft 472 kts 317°
2026-05-05 17:28 35.10611 -113.48814 25989 ft 473 kts 317°
2026-05-05 17:28 35.13119 -113.51314 25985 ft 473 kts 317°
2026-05-05 17:28 35.15651 -113.53848 25986 ft 473 kts 317°
2026-05-05 17:28 35.18172 -113.56377 25967 ft 472 kts 317°
2026-05-05 17:29 35.20722 -113.58953 25984 ft 471 kts 317°
2026-05-05 17:29 35.23255 -113.61526 25974 ft 473 kts 317°
2026-05-05 17:29 35.25787 -113.64095 25970 ft 473 kts 317°
2026-05-05 17:29 35.28278 -113.66627 25976 ft 473 kts 317°
2026-05-05 17:30 35.30786 -113.69182 25959 ft 473 kts 317°
2026-05-05 17:30 35.33330 -113.71766 25763 ft 471 kts 317°
2026-05-05 17:30 35.35714 -113.74186 25275 ft 464 kts 317°
2026-05-05 17:30 35.38190 -113.76706 24532 ft 461 kts 319°
2026-05-05 17:31 35.40618 -113.79181 23784 ft 456 kts 319°
2026-05-05 17:31 35.43045 -113.81646 22982 ft 453 kts 319°
2026-05-05 17:31 35.45451 -113.84093 22203 ft 450 kts 319°
2026-05-05 17:31 35.47868 -113.86549 21437 ft 447 kts 319°
2026-05-05 17:32 35.50234 -113.88964 20828 ft 441 kts 319°
2026-05-05 17:32 35.52566 -113.91348 20276 ft 433 kts 319°
2026-05-05 17:32 35.54858 -113.93695 19751 ft 427 kts 319°
2026-05-05 17:32 35.57119 -113.96007 19240 ft 419 kts 319°
2026-05-05 17:33 35.59328 -113.98264 18778 ft 413 kts 319°
2026-05-05 17:33 35.61528 -114.00519 18286 ft 407 kts 319°
2026-05-05 17:33 35.63684 -114.02735 17818 ft 399 kts 319°
2026-05-05 17:33 35.65769 -114.04884 17379 ft 392 kts 320°
2026-05-05 17:34 35.67852 -114.07026 16942 ft 386 kts 320°
2026-05-05 17:34 35.69866 -114.09098 16343 ft 372 kts 319°
2026-05-05 17:34 35.71785 -114.11077 16134 ft 346 kts 319°
2026-05-05 17:34 35.73564 -114.12909 16034 ft 326 kts 319°
2026-05-05 17:35 35.75226 -114.14774 16020 ft 324 kts 311°
2026-05-05 17:35 35.76612 -114.16972 16022 ft 322 kts 301°
2026-05-05 17:35 35.77723 -114.19348 15844 ft 324 kts 297°
2026-05-05 17:35 35.78773 -114.21777 15534 ft 321 kts 297°
2026-05-05 17:36 35.79818 -114.24210 15055 ft 322 kts 297°
2026-05-05 17:36 35.80858 -114.26608 14705 ft 318 kts 298°
2026-05-05 17:36 35.81913 -114.29014 14277 ft 318 kts 299°
2026-05-05 17:36 35.82970 -114.31396 13886 ft 316 kts 300°
2026-05-05 17:37 35.84096 -114.33672 13502 ft 313 kts 305°
2026-05-05 17:37 35.84951 -114.35134 13247 ft 313 kts 307°
2026-05-05 17:37 35.86688 -114.37932 12772 ft 311 kts 308°
2026-05-05 17:37 35.88012 -114.40054 12435 ft 308 kts 308°
2026-05-05 17:38 35.89318 -114.42133 12066 ft 307 kts 308°
2026-05-05 17:38 35.90612 -114.44199 11750 ft 304 kts 308°
2026-05-05 17:38 35.91894 -114.46253 11486 ft 303 kts 308°
2026-05-05 17:38 35.93176 -114.48302 11133 ft 303 kts 308°
2026-05-05 17:39 35.94454 -114.50347 10861 ft 300 kts 308°
2026-05-05 17:39 35.95726 -114.52389 10589 ft 298 kts 308°
2026-05-05 17:39 35.96973 -114.54405 10255 ft 295 kts 307°
2026-05-05 17:39 35.98195 -114.56400 9802 ft 296 kts 308°
2026-05-05 17:40 35.99451 -114.58456 9364 ft 297 kts 308°
2026-05-05 17:40 36.00702 -114.60480 8950 ft 295 kts 308°
2026-05-05 17:40 36.01925 -114.62452 8631 ft 292 kts 307°
2026-05-05 17:40 36.03148 -114.64445 8275 ft 288 kts 306°
2026-05-05 17:41 36.04248 -114.66454 8122 ft 277 kts 301°
2026-05-05 17:41 36.05183 -114.68346 8070 ft 262 kts 300°
2026-05-05 17:41 36.06102 -114.70232 8003 ft 250 kts 300°
2026-05-05 17:41 36.06948 -114.72046 7979 ft 243 kts 293°
2026-05-05 17:42 36.07382 -114.74049 7863 ft 241 kts 273°
2026-05-05 17:42 36.07458 -114.76109 7573 ft 240 kts 269°
2026-05-05 17:42 36.07462 -114.78159 7274 ft 239 kts 268°
2026-05-05 17:42 36.07660 -114.80193 6977 ft 239 kts 291°
2026-05-05 17:43 36.08605 -114.81820 6723 ft 236 kts 323°
2026-05-05 17:43 36.10101 -114.82603 6436 ft 234 kts 355°
2026-05-05 17:43 36.11678 -114.82293 6094 ft 233 kts 29°
2026-05-05 17:43 36.12849 -114.81033 5790 ft 228 kts 61°
2026-05-05 17:44 36.13280 -114.79198 5464 ft 225 kts 95°
2026-05-05 17:44 36.12819 -114.77395 5134 ft 222 kts 128°
2026-05-05 17:44 36.11615 -114.76264 4968 ft 220 kts 163°
2026-05-05 17:44 36.10118 -114.76196 4979 ft 221 kts 197°
2026-05-05 17:45 36.08813 -114.77178 4976 ft 221 kts 230°
2026-05-05 17:45 36.08106 -114.78865 4999 ft 224 kts 249°
2026-05-05 17:45 36.07628 -114.80704 4994 ft 226 kts 256°
2026-05-05 17:45 36.07390 -114.82633 4988 ft 226 kts 265°
2026-05-05 17:46 36.07369 -114.84541 4975 ft 218 kts 270°
2026-05-05 17:46 36.07409 -114.86408 4978 ft 217 kts 269°
2026-05-05 17:46 36.07435 -114.88264 4985 ft 217 kts 268°
2026-05-05 17:46 36.07438 -114.90121 4985 ft 217 kts 268°
2026-05-05 17:47 36.07431 -114.91933 5137 ft 202 kts 268°
2026-05-05 17:47 36.07423 -114.93651 4926 ft 197 kts 268°
2026-05-05 17:47 36.07416 -114.95310 4679 ft 191 kts 268°
2026-05-05 17:47 36.07407 -114.96935 4432 ft 185 kts 268°
2026-05-05 17:48 36.07399 -114.98507 4200 ft 181 kts 268°
2026-05-05 17:48 36.07391 -115.00047 3975 ft 181 kts 269°
2026-05-05 17:48 36.07390 -115.01600 3752 ft 181 kts 268°
2026-05-05 17:48 36.07387 -115.03139 3553 ft 173 kts 268°
2026-05-05 17:49 36.07386 -115.04555 3309 ft 158 kts 266°
2026-05-05 17:49 36.07381 -115.05863 3098 ft 150 kts 266°
2026-05-05 17:49 36.07376 -115.07153 2912 ft 150 kts 267°
2026-05-05 17:49 36.07370 -115.08432 2726 ft 149 kts 267°
2026-05-05 17:50 36.07369 -115.09708 2540 ft 148 kts 267°
2026-05-05 17:50 36.07370 -115.10983 2337 ft 148 kts 268°
2026-05-05 17:50 36.07370 -115.12251 2129 ft 148 kts 267°
2026-05-05 17:50 36.07363 -115.13499 2076 ft 133 kts 267°
2026-05-05 17:51 36.07362 -115.14429 2103 ft 78 kts 269°
2026-05-05 17:51 36.07385 -115.14837 2117 ft 28 kts 291°
2026-05-05 17:51 36.07458 -115.15034 2123 ft 12 kts 299°
2026-05-05 17:51 36.07496 -115.15102 2125 ft 4 kts 314°
2026-05-05 17:52 36.07613 -115.15183 2127 ft 30 kts 335°
2026-05-05 17:52 36.07752 -115.15259 2128 ft 7 kts 353°
2026-05-05 17:52 36.07778 -115.15213 2127 ft 11 kts 40°
2026-05-05 17:52 36.07802 -115.15095 2122 ft 19 kts 92°
2026-05-05 17:53 36.07786 -115.14844 2113 ft 35 kts 95°
2026-05-05 17:53 36.07765 -115.14544 2103 ft 34 kts 95°
2026-05-05 17:53 36.07753 -115.14252 2093 ft 34 kts 90°
2026-05-05 17:53 36.07753 -115.13966 2084 ft 31 kts 90°
2026-05-05 17:54 36.07791 -115.13796 2079 ft 18 kts 14°
2026-05-05 17:54 36.07871 -115.13713 2076 ft 15 kts 52°
2026-05-05 17:54 36.07916 -115.13656 2073 ft 0 kts 42°
2026-05-05 17:54 36.07926 -115.13653 2073 ft 3 kts 353°
2026-05-05 17:55 36.07964 -115.13657 2073 ft 5 kts
2026-05-05 17:55 36.08002 -115.13633 2072 ft 7 kts 39°
2026-05-05 17:55 36.08021 -115.13610 2071 ft 1 kts 47°
2026-05-05 17:55 36.08023 -115.13608 2071 ft 0 kts 47°